Home > Weather > Kelowna > Past weeks

Flag for Canada Weather for the Past 2 Weeks in Kelowna, British Columbia, Canada

Now
25 °F

Clear.


Feels Like: 25 °F
Forecast: 28 / 45 °F
Wind: 2 mph from Northeast

Location: Kelowna Airport

Current Time: Feb 7, 2016 at 8:05:18 PM

Latest Report: Feb 7, 2016 at 7:00 PM


Visibility: 9 mi

Pressure: 30.73 "Hg

Humidity: 93%

Dew point: 23 °F

Location of KelownaLocation

Historic Weather in Kelowna — Graph

°F

Kelowna Temperature Yesterday

Maximum temperature yesterday: 43 °F (at 2:00 AM)
Minimum temperature yesterday: 23 °F (at 11:00 PM)
Average temperature yesterday: 39 °F

High & Low Weather Summary for the Past Weeks

 TemperatureHumidityPressure
High45 °F (Jan 28, 3:00 PM)100% (Jan 23, 6:00 PM)30.74 "Hg (Jan 23, 6:00 PM)
Low9 °F (Feb 3, 12:00 AM)49% (Feb 6, 3:00 PM)29.64 "Hg (Jan 29, 2:48 PM)
Average33 °F87%30.15 "Hg
* Reported Jan 23 6:00 PM — Feb 7 6:00 PM, Kelowna, Weather by CustomWeather, © 2016

Note: Actual official high and low records may vary slightly from our data, if they occured in-between our weather recording intervals... More about our weather records

Advertising

Kelowna Weather History for the Previous 24 Hours

 ConditionsComfort  
Time TempWeatherWind HumidityBarometerVisibility
6:00 PM
Sun, Feb 7
30 °FPassing clouds.2 mph93%30.73 "Hg9 mi
5:00 PM32 °FPartly sunny.3 mph87%30.74 "Hg9 mi
4:00 PM34 °FPartly sunny.No wind87%30.71 "Hg9 mi
3:00 PM34 °FOvercast.5 mph87%30.71 "Hg9 mi
2:00 PM34 °FOvercast.5 mph81%30.71 "Hg9 mi
1:00 PM32 °FOvercast.5 mph93%30.73 "Hg9 mi
12:57 PM32 °FOvercast.5 mph93%30.72 "Hg9 mi
12:01 PM34 °FLight rain. Mostly cloudy.2 mph75%30.71 "Hg9 mi
11:00 AM32 °FCloudy.No wind75%30.71 "Hg9 mi
10:00 AM30 °FOvercast.No wind80%30.70 "Hg9 mi
9:00 AM27 °FOvercast.No wind86%30.68 "Hg9 mi
8:00 AM23 °FSunny.3 mph86%30.66 "Hg9 mi
7:00 AM25 °FPassing clouds.2 mph93%30.65 "Hg9 mi
6:00 AM25 °FPassing clouds.No wind86%30.64 "Hg9 mi
5:00 AM25 °FPassing clouds.No wind93%30.62 "Hg9 mi
4:00 AM23 °FOvercast.5 mph93%30.63 "Hg9 mi
3:00 AM25 °FOvercast.2 mph86%30.60 "Hg9 mi
2:00 AM25 °FOvercast.2 mph86%30.59 "Hg9 mi
1:00 AM21 °FClear.3 mph86%30.59 "Hg9 mi
12:00 AM27 °FClear.2 mph80%30.56 "Hg9 mi
11:00 PM
Sat, Feb 6
23 °FClear.2 mph80%30.55 "Hg9 mi
10:00 PM28 °FClear.2 mph80%30.51 "Hg9 mi
9:00 PM30 °FClear.No wind75%30.47 "Hg9 mi
8:00 PM32 °FClear.3 mph69%30.49 "Hg9 mi
Weather by CustomWeather, © 2016

See weather overviewHow to use our weather pages